This demonstration page uses our WeatherBlox Daily Observations layout. Learn more.

41.86663, -103.66717

Hourly Observations for May 2, 2019

Temp ( °F °C ) Dew Point ( °F °C ) Humidity (%) Winds ( mph kmh ) Pressure ( in mb ) Visibility ( mi km ) Precip ( " mm )
12:53 am 00:53 Clear 29 -1.7 27 -2.8 92 92 E 7 11 30.23 1024 10 16.0934 0 0
1:53 am 01:53 Clear 30 -1.1 28 -2.2 92 92 E 7 11 30.21 1023 10 16.0934 0 0
2:53 am 02:53 Clear 28 -2.2 26 -3.3 92 92 ESE 8 13 30.19 1023 10 16.0934 0 0
3:53 am 03:53 Clear 28 -2.2 26 -3.3 92 92 ESE 7 11 30.18 1022 10 16.0934 0 0
4:53 am 04:53 Clear 29 -1.7 27 -2.8 92 92 ENE 6 9 30.16 1021 10 16.0934 0 0
5:53 am 05:53 Sunny 29 -1.7 26 -3.3 89 89 E 8 13 30.15 1021 10 16.0934 0 0
6:53 am 06:53 Sunny 33 0.6 30 -1.1 89 89 E 8 13 30.15 1021 10 16.0934 0 0
7:53 am 07:53 Sunny 36 2.2 32 0 86 86 E 9 15 30.17 1022 10 16.0934 0 0
8:53 am 08:53 Sunny 43 6.1 35 1.7 74 74 E 7 11 30.14 1021 10 16.0934 0 0
9:53 am 09:53 Sunny 53 11.7 33 0.6 47 47 SW 14 22 30.09 1019 10 16.0934 0 0
10:53 am 10:53 Sunny 56 13.3 33 0.6 42 42 SSW 18 30 30.06 1018 10 16.0934 0 0
11:53 am 11:53 Sunny 59 15 34 1.1 39 39 SSW 21 33 30.03 1017 10 16.0934 0 0
12:53 pm 12:53 Mostly Cloudy 58 14.4 28 -2.2 32 32 SSW 18 30 29.99 1016 10 16.0934 0 0
1:15 pm 13:15 Cloudy 54 12.2 33 0.6 45 45 NW 20 31 29.93 1014 10 16.0934 0 0
1:23 pm 13:23 Cloudy 54 12 36 2 51 51 NW 15 24 29.94 1014 10 16.0934 0 0
1:53 pm 13:53 Cloudy with Light Rain 57 13.9 35 1.7 44 44 W 9 15 30 1016 10 16.0934 0 0.0254
2:53 pm 14:53 Mostly Cloudy 58 14.4 34 1.1 41 41 NNW 8 13 29.98 1015 10 16.0934 0 0.0254
3:53 pm 15:53 Mostly Cloudy 55 12.8 34 1.1 45 45 WNW 8 13 29.97 1015 10 16.0934 0 0.0254
4:53 pm 16:53 Partly Cloudy 60 15.6 34 1.1 38 38 SSW 15 24 29.93 1014 10 16.0934 0 0
5:53 pm 17:53 Sunny 60 15.6 32 0 35 35 S 7 11 29.92 1013 10 16.0934 0 0
6:53 pm 18:53 Sunny 59 15 30 -1.1 33 33 W 6 9 29.91 1013 10 16.0934 0 0
7:53 pm 19:53 Sunny 53 11.7 29 -1.7 40 40 WNW 6 9 29.93 1013 10 16.0934 0 0
8:53 pm 20:53 Clear 50 10 29 -1.7 44 44 S 3 6 29.93 1014 10 16.0934 0 0
9:53 pm 21:53 Clear 41 5 32 0 70 70 SE 6 9 29.94 1014 10 16.0934 0 0
10:53 pm 22:53 Clear 38 3.3 33 0.6 83 83 E 8 13 29.94 1014 10 16.0934 0 0
11:53 pm 23:53 Clear 39 3.9 37 2.8 93 93 ESE 12 19 29.94 1014 10 16.0934 0 0

Powered by AerisWeather